Year,Month,Day,Hour,Minute,Value (Times are PST for temperature in C)
2017,10,31,00,00,5.00
2017,10,31,00,01,5.00
2017,10,31,00,02,5.00
2017,10,31,00,03,5.00
2017,10,31,00,04,5.00
2017,10,31,00,05,4.90
2017,10,31,00,06,4.90
2017,10,31,00,07,4.90
2017,10,31,00,08,4.90
2017,10,31,00,09,4.90
2017,10,31,00,10,4.90
2017,10,31,00,11,4.80
2017,10,31,00,12,4.80
2017,10,31,00,13,4.80
2017,10,31,00,14,4.80
2017,10,31,00,15,4.80
2017,10,31,00,16,4.90
2017,10,31,00,17,4.90
2017,10,31,00,18,4.90
2017,10,31,00,19,4.90
2017,10,31,00,20,4.90
2017,10,31,00,21,5.00
2017,10,31,00,22,5.00
2017,10,31,00,23,5.10
2017,10,31,00,24,5.10
2017,10,31,00,25,5.10
2017,10,31,00,26,5.10
2017,10,31,00,27,5.10
2017,10,31,00,28,5.20
2017,10,31,00,29,5.20
2017,10,31,00,30,5.20
2017,10,31,00,31,5.20
2017,10,31,00,32,5.30
2017,10,31,00,33,5.30
2017,10,31,00,34,5.40
2017,10,31,00,35,5.40
2017,10,31,00,36,5.40
2017,10,31,00,37,5.40
2017,10,31,00,38,5.40
2017,10,31,00,39,5.40
2017,10,31,00,40,5.40
2017,10,31,00,41,5.40
2017,10,31,00,42,5.50
2017,10,31,00,43,5.50
2017,10,31,00,44,5.50
2017,10,31,00,45,5.60
2017,10,31,00,46,5.60
2017,10,31,00,47,5.60
2017,10,31,00,48,5.70
2017,10,31,00,49,5.70
2017,10,31,00,50,5.80
2017,10,31,00,51,5.80
2017,10,31,00,52,5.90
2017,10,31,00,53,5.90
2017,10,31,00,54,6.00
2017,10,31,00,55,6.00
2017,10,31,00,56,6.00
2017,10,31,00,57,5.90
2017,10,31,00,58,5.90
2017,10,31,00,59,5.80
2017,10,31,01,00,5.80
2017,10,31,01,01,5.70
2017,10,31,01,02,5.70
2017,10,31,01,03,5.60
2017,10,31,01,04,5.60
2017,10,31,01,05,5.50
2017,10,31,01,06,5.50
2017,10,31,01,07,5.40
2017,10,31,01,08,5.30
2017,10,31,01,09,5.30
2017,10,31,01,10,5.30
2017,10,31,01,11,5.20
2017,10,31,01,12,5.20
2017,10,31,01,13,5.20
2017,10,31,01,14,5.10
2017,10,31,01,15,5.10
2017,10,31,01,16,5.10
2017,10,31,01,17,5.00
2017,10,31,01,18,5.00
2017,10,31,01,19,4.90
2017,10,31,01,20,4.90
2017,10,31,01,21,4.80
2017,10,31,01,22,4.80
2017,10,31,01,23,4.80
2017,10,31,01,24,4.70
2017,10,31,01,25,4.70
2017,10,31,01,26,4.70
2017,10,31,01,27,4.80
2017,10,31,01,28,4.80
2017,10,31,01,29,4.80
2017,10,31,01,30,4.80
2017,10,31,01,31,4.80
2017,10,31,01,32,4.80
2017,10,31,01,33,4.80
2017,10,31,01,34,4.80
2017,10,31,01,35,4.70
2017,10,31,01,36,4.70
2017,10,31,01,37,4.70
2017,10,31,01,38,4.70
2017,10,31,01,39,4.70
2017,10,31,01,40,4.70
2017,10,31,01,41,4.70
2017,10,31,01,42,4.70
2017,10,31,01,43,4.70
2017,10,31,01,44,4.70
2017,10,31,01,45,4.70
2017,10,31,01,46,4.80
2017,10,31,01,47,4.80
2017,10,31,01,48,4.70
2017,10,31,01,49,4.70
2017,10,31,01,50,4.70
2017,10,31,01,51,4.60
2017,10,31,01,52,4.60
2017,10,31,01,53,4.50
2017,10,31,01,54,4.50
2017,10,31,01,55,4.40
2017,10,31,01,56,4.40
2017,10,31,01,57,4.30
2017,10,31,01,58,4.30
2017,10,31,01,59,4.30
2017,10,31,02,00,4.20
2017,10,31,02,01,4.20
2017,10,31,02,02,4.20
2017,10,31,02,03,4.20
2017,10,31,02,04,4.20
2017,10,31,02,05,4.20
2017,10,31,02,06,4.20
2017,10,31,02,07,4.20
2017,10,31,02,08,4.20
2017,10,31,02,09,4.20
2017,10,31,02,10,4.10
2017,10,31,02,11,4.10
2017,10,31,02,12,4.10
2017,10,31,02,13,4.10
2017,10,31,02,14,4.00
2017,10,31,02,15,4.00
2017,10,31,02,16,4.00
2017,10,31,02,17,4.00
2017,10,31,02,18,4.00
2017,10,31,02,19,3.90
2017,10,31,02,20,3.90
2017,10,31,02,21,4.00
2017,10,31,02,22,4.00
2017,10,31,02,23,4.00
2017,10,31,02,24,4.00
2017,10,31,02,25,4.00
2017,10,31,02,26,4.00
2017,10,31,02,27,4.00
2017,10,31,02,28,4.00
2017,10,31,02,29,4.00
2017,10,31,02,30,4.00
2017,10,31,02,31,4.10
2017,10,31,02,32,4.10
2017,10,31,02,33,4.10
2017,10,31,02,34,4.20
2017,10,31,02,35,4.20
2017,10,31,02,36,4.20
2017,10,31,02,37,4.20
2017,10,31,02,38,4.20
2017,10,31,02,39,4.20
2017,10,31,02,40,4.20
2017,10,31,02,41,4.20
2017,10,31,02,42,4.10
2017,10,31,02,43,4.10
2017,10,31,02,44,4.10
2017,10,31,02,45,4.00
2017,10,31,02,46,4.00
2017,10,31,02,47,4.00
2017,10,31,02,48,4.00
2017,10,31,02,49,3.90
2017,10,31,02,50,3.90
2017,10,31,02,51,3.90
2017,10,31,02,52,3.90
2017,10,31,02,53,3.80
2017,10,31,02,54,3.80
2017,10,31,02,55,3.80
2017,10,31,02,56,3.80
2017,10,31,02,57,3.80
2017,10,31,02,58,3.80
2017,10,31,02,59,3.80
2017,10,31,03,00,3.80
2017,10,31,03,01,3.80
2017,10,31,03,02,3.80
2017,10,31,03,03,3.80
2017,10,31,03,04,3.90
2017,10,31,03,05,3.90
2017,10,31,03,06,4.00
2017,10,31,03,07,4.10
2017,10,31,03,08,4.10
2017,10,31,03,09,4.10
2017,10,31,03,10,4.10
2017,10,31,03,11,4.10
2017,10,31,03,12,4.10
2017,10,31,03,13,4.00
2017,10,31,03,14,4.00
2017,10,31,03,15,4.00
2017,10,31,03,16,4.00
2017,10,31,03,17,3.90
2017,10,31,03,18,3.90
2017,10,31,03,19,3.90
2017,10,31,03,20,4.00
2017,10,31,03,21,4.00
2017,10,31,03,22,4.10
2017,10,31,03,23,4.10
2017,10,31,03,24,4.20
2017,10,31,03,25,4.20
2017,10,31,03,26,4.30
2017,10,31,03,27,4.30
2017,10,31,03,28,4.40
2017,10,31,03,29,4.40
2017,10,31,03,30,4.50
2017,10,31,03,31,4.50
2017,10,31,03,32,4.50
2017,10,31,03,33,4.60
2017,10,31,03,34,4.60
2017,10,31,03,35,4.60
2017,10,31,03,36,4.60
2017,10,31,03,37,4.50
2017,10,31,03,38,4.50
2017,10,31,03,39,4.40
2017,10,31,03,40,4.40
2017,10,31,03,41,4.30
2017,10,31,03,42,4.30
2017,10,31,03,43,4.20
2017,10,31,03,44,4.20
2017,10,31,03,45,4.20
2017,10,31,03,46,4.10
2017,10,31,03,47,4.10
2017,10,31,03,48,4.00
2017,10,31,03,49,4.00
2017,10,31,03,50,4.00
2017,10,31,03,51,4.00
2017,10,31,03,52,4.00
2017,10,31,03,53,4.00
2017,10,31,03,54,3.90
2017,10,31,03,55,3.90
2017,10,31,03,56,3.90
2017,10,31,03,57,3.80
2017,10,31,03,58,3.80
2017,10,31,03,59,3.80
2017,10,31,04,00,3.80
2017,10,31,04,01,3.80
2017,10,31,04,02,3.80
2017,10,31,04,03,3.80
2017,10,31,04,04,3.70
2017,10,31,04,05,3.70
2017,10,31,04,06,3.70
2017,10,31,04,07,3.70
2017,10,31,04,08,3.60
2017,10,31,04,09,3.60
2017,10,31,04,10,3.60
2017,10,31,04,11,3.60
2017,10,31,04,12,3.60
2017,10,31,04,13,3.50
2017,10,31,04,14,3.50
2017,10,31,04,15,3.60
2017,10,31,04,16,3.60
2017,10,31,04,17,3.60
2017,10,31,04,18,3.60
2017,10,31,04,19,3.60
2017,10,31,04,20,3.60
2017,10,31,04,21,3.60
2017,10,31,04,22,3.50
2017,10,31,04,23,3.50
2017,10,31,04,24,3.40
2017,10,31,04,25,3.40
2017,10,31,04,26,3.40
2017,10,31,04,27,3.40
2017,10,31,04,28,3.40
2017,10,31,04,29,3.40
2017,10,31,04,30,3.40
2017,10,31,04,31,3.40
2017,10,31,04,32,3.40
2017,10,31,04,33,3.40
2017,10,31,04,34,3.50
2017,10,31,04,35,3.50
2017,10,31,04,36,3.50
2017,10,31,04,37,3.40
2017,10,31,04,38,3.40
2017,10,31,04,39,3.40
2017,10,31,04,40,3.40
2017,10,31,04,41,3.40
2017,10,31,04,42,3.40
2017,10,31,04,43,3.40
2017,10,31,04,44,3.50
2017,10,31,04,45,3.60
2017,10,31,04,46,3.60
2017,10,31,04,47,3.60
2017,10,31,04,48,3.70
2017,10,31,04,49,3.70
2017,10,31,04,50,3.70
2017,10,31,04,51,3.80
2017,10,31,04,52,3.80
2017,10,31,04,53,3.80
2017,10,31,04,54,3.90
2017,10,31,04,55,3.90
2017,10,31,04,56,3.90
2017,10,31,04,57,4.00
2017,10,31,04,58,4.00
2017,10,31,04,59,4.10
2017,10,31,05,00,4.10
2017,10,31,05,01,4.00
2017,10,31,05,02,4.00
2017,10,31,05,03,3.90
2017,10,31,05,04,3.80
2017,10,31,05,05,3.80
2017,10,31,05,06,3.80
2017,10,31,05,07,3.70
2017,10,31,05,08,3.70
2017,10,31,05,09,3.70
2017,10,31,05,10,3.60
2017,10,31,05,11,3.60
2017,10,31,05,12,3.60
2017,10,31,05,13,3.60
2017,10,31,05,14,3.60
2017,10,31,05,15,3.60
2017,10,31,05,16,3.50
2017,10,31,05,17,3.50
2017,10,31,05,18,3.50
2017,10,31,05,19,3.50
2017,10,31,05,20,3.40
2017,10,31,05,21,3.40
2017,10,31,05,22,3.40
2017,10,31,05,23,3.50
2017,10,31,05,24,3.50
2017,10,31,05,25,3.50
2017,10,31,05,26,3.60
2017,10,31,05,27,3.60
2017,10,31,05,28,3.60
2017,10,31,05,29,3.70
2017,10,31,05,30,3.70
2017,10,31,05,31,3.80
2017,10,31,05,32,3.80
2017,10,31,05,33,3.90
2017,10,31,05,34,3.90
2017,10,31,05,35,4.00
2017,10,31,05,36,4.00
2017,10,31,05,37,4.10
2017,10,31,05,38,4.10
2017,10,31,05,39,4.20
2017,10,31,05,40,4.20
2017,10,31,05,41,4.20
2017,10,31,05,42,4.20
2017,10,31,05,43,4.30
2017,10,31,05,44,4.20
2017,10,31,05,45,4.20
2017,10,31,05,46,4.20
2017,10,31,05,47,4.20
2017,10,31,05,48,4.20
2017,10,31,05,49,4.20
2017,10,31,05,50,4.20
2017,10,31,05,51,4.30
2017,10,31,05,52,4.30
2017,10,31,05,53,4.30
2017,10,31,05,54,4.30
2017,10,31,05,55,4.40
2017,10,31,05,56,4.40
2017,10,31,05,57,4.40
2017,10,31,05,58,4.40
2017,10,31,05,59,4.50
2017,10,31,06,00,4.50
2017,10,31,06,01,4.60
2017,10,31,06,02,4.60
2017,10,31,06,03,4.60
2017,10,31,06,04,4.70
2017,10,31,06,05,4.70
2017,10,31,06,06,4.80
2017,10,31,06,07,4.80
2017,10,31,06,08,4.80
2017,10,31,06,09,4.80
2017,10,31,06,10,4.80
2017,10,31,06,11,4.80
2017,10,31,06,12,4.80
2017,10,31,06,13,4.80
2017,10,31,06,14,4.80
2017,10,31,06,15,4.80
2017,10,31,06,16,4.80
2017,10,31,06,17,4.80
2017,10,31,06,18,4.80
2017,10,31,06,19,4.70
2017,10,31,06,20,4.70
2017,10,31,06,21,4.60
2017,10,31,06,22,4.60
2017,10,31,06,23,4.50
2017,10,31,06,24,4.50
2017,10,31,06,25,4.50
2017,10,31,06,26,4.50
2017,10,31,06,27,4.50
2017,10,31,06,28,4.50
2017,10,31,06,29,4.50
2017,10,31,06,30,4.40
2017,10,31,06,31,4.40
2017,10,31,06,32,4.30
2017,10,31,06,33,4.30
2017,10,31,06,34,4.20
2017,10,31,06,35,4.20
2017,10,31,06,36,4.20
2017,10,31,06,37,4.20
2017,10,31,06,38,4.10
2017,10,31,06,39,4.10
2017,10,31,06,40,4.10
2017,10,31,06,41,4.10
2017,10,31,06,42,4.10
2017,10,31,06,43,4.20
2017,10,31,06,44,4.20
2017,10,31,06,45,4.30
2017,10,31,06,46,4.30
2017,10,31,06,47,4.40
2017,10,31,06,48,4.50
2017,10,31,06,49,4.50
2017,10,31,06,50,4.60
2017,10,31,06,51,4.60
2017,10,31,06,52,4.70
2017,10,31,06,53,4.70
2017,10,31,06,54,4.70
2017,10,31,06,55,4.80
2017,10,31,06,56,4.80
2017,10,31,06,57,4.80
2017,10,31,06,58,4.70
2017,10,31,06,59,4.70
2017,10,31,07,00,4.60
2017,10,31,07,01,4.60
2017,10,31,07,02,4.60
2017,10,31,07,03,4.60
2017,10,31,07,04,4.60
2017,10,31,07,05,4.60
2017,10,31,07,06,4.60
2017,10,31,07,07,4.50
2017,10,31,07,08,4.50
2017,10,31,07,09,4.50
2017,10,31,07,10,4.50
2017,10,31,07,11,4.50
2017,10,31,07,12,4.50
2017,10,31,07,13,4.50
2017,10,31,07,14,4.50
2017,10,31,07,15,4.60
2017,10,31,07,16,4.60
2017,10,31,07,17,4.50
2017,10,31,07,18,4.50
2017,10,31,07,19,4.40
2017,10,31,07,20,4.40
2017,10,31,07,21,4.40
2017,10,31,07,22,4.30
2017,10,31,07,23,4.30
2017,10,31,07,24,4.30
2017,10,31,07,25,4.20
2017,10,31,07,26,4.20
2017,10,31,07,27,4.20
2017,10,31,07,28,4.10
2017,10,31,07,29,4.10
2017,10,31,07,30,4.10
2017,10,31,07,31,4.00
2017,10,31,07,32,4.00
2017,10,31,07,33,3.90
2017,10,31,07,34,3.90
2017,10,31,07,35,3.90
2017,10,31,07,36,3.90
2017,10,31,07,37,3.90
2017,10,31,07,38,3.90
2017,10,31,07,39,3.90
2017,10,31,07,40,3.90
2017,10,31,07,41,3.90
2017,10,31,07,42,3.90
2017,10,31,07,43,3.90
2017,10,31,07,44,3.90
2017,10,31,07,45,4.00
2017,10,31,07,46,4.00
2017,10,31,07,47,4.00
2017,10,31,07,48,4.00
2017,10,31,07,49,4.00
2017,10,31,07,50,4.00
2017,10,31,07,51,3.90
2017,10,31,07,52,3.90
2017,10,31,07,53,3.90
2017,10,31,07,54,3.80
2017,10,31,07,55,3.80
2017,10,31,07,56,3.80
2017,10,31,07,57,3.80
2017,10,31,07,58,3.80
2017,10,31,07,59,3.80
2017,10,31,08,00,3.70
2017,10,31,08,01,3.70
2017,10,31,08,02,3.70
2017,10,31,08,03,3.70
2017,10,31,08,04,3.70
2017,10,31,08,05,3.70
2017,10,31,08,06,3.70
2017,10,31,08,07,3.70
2017,10,31,08,08,3.70
2017,10,31,08,09,3.70
2017,10,31,08,10,3.70
2017,10,31,08,11,3.70
2017,10,31,08,12,3.70
2017,10,31,08,13,3.70
2017,10,31,08,14,3.80
2017,10,31,08,15,3.80
2017,10,31,08,16,3.90
2017,10,31,08,17,4.00
2017,10,31,08,18,4.10
2017,10,31,08,19,4.20
2017,10,31,08,20,4.20
2017,10,31,08,21,4.20
2017,10,31,08,22,4.20
2017,10,31,08,23,4.20
2017,10,31,08,24,4.20
2017,10,31,08,25,4.20
2017,10,31,08,26,4.20
2017,10,31,08,27,4.10
2017,10,31,08,28,4.10
2017,10,31,08,29,4.10
2017,10,31,08,30,4.10
2017,10,31,08,31,4.00
2017,10,31,08,32,3.90
2017,10,31,08,33,3.90
2017,10,31,08,34,3.80
2017,10,31,08,35,3.80
2017,10,31,08,36,3.80
2017,10,31,08,37,3.70
2017,10,31,08,38,3.70
2017,10,31,08,39,3.70
2017,10,31,08,40,3.70
2017,10,31,08,41,3.70
2017,10,31,08,42,3.70
2017,10,31,08,43,3.70
2017,10,31,08,44,3.70
2017,10,31,08,45,3.70
2017,10,31,08,46,3.70
2017,10,31,08,47,3.70
2017,10,31,08,48,3.70
2017,10,31,08,49,3.60
2017,10,31,08,50,3.60
2017,10,31,08,51,3.60
2017,10,31,08,52,3.60
2017,10,31,08,53,3.60
2017,10,31,08,54,3.60
2017,10,31,08,55,3.60
2017,10,31,08,56,3.60
2017,10,31,08,57,3.60
2017,10,31,08,58,3.70
2017,10,31,08,59,3.70
2017,10,31,09,00,3.70
2017,10,31,09,01,3.70
2017,10,31,09,02,3.80
2017,10,31,09,03,3.80
2017,10,31,09,04,3.80
2017,10,31,09,05,3.80
2017,10,31,09,06,3.80
2017,10,31,09,07,3.80
2017,10,31,09,08,3.80
2017,10,31,09,09,3.80
2017,10,31,09,10,3.80
2017,10,31,09,11,3.80
2017,10,31,09,12,3.80
2017,10,31,09,13,3.80
2017,10,31,09,14,3.80
2017,10,31,09,15,3.80
2017,10,31,09,16,3.80
2017,10,31,09,17,3.80
2017,10,31,09,18,3.80
2017,10,31,09,19,3.80
2017,10,31,09,20,3.90
2017,10,31,09,21,3.90
2017,10,31,09,22,3.90
2017,10,31,09,23,3.90
2017,10,31,09,24,3.90
2017,10,31,09,25,3.90
2017,10,31,09,26,3.90
2017,10,31,09,27,4.00
2017,10,31,09,28,4.00
2017,10,31,09,29,4.00
2017,10,31,09,30,4.00
2017,10,31,09,31,4.10
2017,10,31,09,32,4.10
2017,10,31,09,33,4.10
2017,10,31,09,34,4.10
2017,10,31,09,35,4.10
2017,10,31,09,36,4.10
2017,10,31,09,37,4.20
2017,10,31,09,38,4.20
2017,10,31,09,39,4.20
2017,10,31,09,40,4.20
2017,10,31,09,41,4.20
2017,10,31,09,42,4.20
2017,10,31,09,43,4.30
2017,10,31,09,44,4.30
2017,10,31,09,45,4.40
2017,10,31,09,46,4.50
2017,10,31,09,47,4.50
2017,10,31,09,48,4.60
2017,10,31,09,49,4.60
2017,10,31,09,50,4.70
2017,10,31,09,51,4.70
2017,10,31,09,52,4.80
2017,10,31,09,53,4.80
2017,10,31,09,54,4.80
2017,10,31,09,55,4.80
2017,10,31,09,56,4.80
2017,10,31,09,57,4.80
2017,10,31,09,58,4.80
2017,10,31,09,59,4.80
2017,10,31,10,00,4.80
2017,10,31,10,01,4.90
2017,10,31,10,02,4.90
2017,10,31,10,03,4.90
2017,10,31,10,04,4.90
2017,10,31,10,05,5.00
2017,10,31,10,06,5.10
2017,10,31,10,07,5.10
2017,10,31,10,08,5.20
2017,10,31,10,09,5.30
2017,10,31,10,10,5.30
2017,10,31,10,11,5.40
2017,10,31,10,12,5.40
2017,10,31,10,13,5.50
2017,10,31,10,14,5.60
2017,10,31,10,15,5.70
2017,10,31,10,16,5.80
2017,10,31,10,17,5.80
2017,10,31,10,18,5.90
2017,10,31,10,19,6.00
2017,10,31,10,20,6.00
2017,10,31,10,21,6.10
2017,10,31,10,22,6.10
2017,10,31,10,23,6.20
2017,10,31,10,24,6.20
2017,10,31,10,25,6.30
2017,10,31,10,26,6.30
2017,10,31,10,27,6.40
2017,10,31,10,28,6.40
2017,10,31,10,29,6.50
2017,10,31,10,30,6.60
2017,10,31,10,31,6.70
2017,10,31,10,32,6.70
2017,10,31,10,33,6.80
2017,10,31,10,34,7.00
2017,10,31,10,35,7.10
2017,10,31,10,36,7.20
2017,10,31,10,37,7.30
2017,10,31,10,38,7.40
2017,10,31,10,39,7.40
2017,10,31,10,40,7.50
2017,10,31,10,41,7.60
2017,10,31,10,42,7.60
2017,10,31,10,43,7.70
2017,10,31,10,44,7.80
2017,10,31,10,45,7.80
2017,10,31,10,46,7.80
2017,10,31,10,47,7.90
2017,10,31,10,48,7.90
2017,10,31,10,49,7.90
2017,10,31,10,50,7.90
2017,10,31,10,51,8.00
2017,10,31,10,52,8.00
2017,10,31,10,53,8.00
2017,10,31,10,54,8.10
2017,10,31,10,55,8.10
2017,10,31,10,56,8.20
2017,10,31,10,57,8.20
2017,10,31,10,58,8.30
2017,10,31,10,59,8.30
2017,10,31,11,00,8.40
2017,10,31,11,01,8.40
2017,10,31,11,02,8.50
2017,10,31,11,03,8.50
2017,10,31,11,04,8.60
2017,10,31,11,05,8.70
2017,10,31,11,06,8.80
2017,10,31,11,07,8.80
2017,10,31,11,08,8.90
2017,10,31,11,09,9.00
2017,10,31,11,10,9.00
2017,10,31,11,11,9.10
2017,10,31,11,12,9.20
2017,10,31,11,13,9.20
2017,10,31,11,14,9.30
2017,10,31,11,15,9.30
2017,10,31,11,16,9.40
2017,10,31,11,17,9.40
2017,10,31,11,18,9.50
2017,10,31,11,19,9.50
2017,10,31,11,20,9.50
2017,10,31,11,21,9.50
2017,10,31,11,22,9.50
2017,10,31,11,23,9.60
2017,10,31,11,24,9.60
2017,10,31,11,25,9.60
2017,10,31,11,26,9.70
2017,10,31,11,27,9.70
2017,10,31,11,28,9.70
2017,10,31,11,29,9.80
2017,10,31,11,30,9.80
2017,10,31,11,31,9.80
2017,10,31,11,32,9.80
2017,10,31,11,33,9.90
2017,10,31,11,34,9.90
2017,10,31,11,35,9.90
2017,10,31,11,36,9.90
2017,10,31,11,37,10.00
2017,10,31,11,38,10.00
2017,10,31,11,39,10.00
2017,10,31,11,40,10.10
2017,10,31,11,41,10.10
2017,10,31,11,42,10.20
2017,10,31,11,43,10.20
2017,10,31,11,44,10.20
2017,10,31,11,45,10.20
2017,10,31,11,46,10.30
2017,10,31,11,47,10.30
2017,10,31,11,48,10.30
2017,10,31,11,49,10.40
2017,10,31,11,50,10.40
2017,10,31,11,51,10.40
2017,10,31,11,52,10.50
2017,10,31,11,53,10.50
2017,10,31,11,54,10.60
2017,10,31,11,55,10.60
2017,10,31,11,56,10.60
2017,10,31,11,57,10.70
2017,10,31,11,58,10.70
2017,10,31,11,59,10.80
2017,10,31,12,00,10.80
2017,10,31,12,01,10.80
2017,10,31,12,02,10.80
2017,10,31,12,03,10.80
2017,10,31,12,04,10.90
2017,10,31,12,05,10.90
2017,10,31,12,06,10.90
2017,10,31,12,07,10.90
2017,10,31,12,08,10.90
2017,10,31,12,09,10.90
2017,10,31,12,10,10.90
2017,10,31,12,11,10.90
2017,10,31,12,12,10.90
2017,10,31,12,13,10.90
2017,10,31,12,14,10.90
2017,10,31,12,15,10.90
2017,10,31,12,16,10.90
2017,10,31,12,17,10.90
2017,10,31,12,18,10.90
2017,10,31,12,19,11.00
2017,10,31,12,20,11.00
2017,10,31,12,21,11.00
2017,10,31,12,22,11.00
2017,10,31,12,23,11.10
2017,10,31,12,24,11.10
2017,10,31,12,25,11.10
2017,10,31,12,26,11.00
2017,10,31,12,27,11.00
2017,10,31,12,28,10.90
2017,10,31,12,29,10.90
2017,10,31,12,30,10.90
2017,10,31,12,31,10.90
2017,10,31,12,32,10.80
2017,10,31,12,33,10.80
2017,10,31,12,34,10.80
2017,10,31,12,35,10.70
2017,10,31,12,36,10.70
2017,10,31,12,37,10.70
2017,10,31,12,38,10.70
2017,10,31,12,39,10.60
2017,10,31,12,40,10.60
2017,10,31,12,41,10.60
2017,10,31,12,42,10.60
2017,10,31,12,43,10.60
2017,10,31,12,44,10.60
2017,10,31,12,45,10.60
2017,10,31,12,46,10.60
2017,10,31,12,47,10.60
2017,10,31,12,48,10.70
2017,10,31,12,49,10.70
2017,10,31,12,50,10.80
2017,10,31,12,51,10.80
2017,10,31,12,52,10.80
2017,10,31,12,53,10.90
2017,10,31,12,54,10.90
2017,10,31,12,55,11.00
2017,10,31,12,56,11.00
2017,10,31,12,57,11.10
2017,10,31,12,58,11.20
2017,10,31,12,59,11.20
2017,10,31,13,00,11.30
2017,10,31,13,01,11.30
2017,10,31,13,02,11.40
2017,10,31,13,03,11.50
2017,10,31,13,04,11.50
2017,10,31,13,05,11.60
2017,10,31,13,06,11.60
2017,10,31,13,07,11.70
2017,10,31,13,08,11.80
2017,10,31,13,09,11.80
2017,10,31,13,10,11.90
2017,10,31,13,11,11.90
2017,10,31,13,12,12.00
2017,10,31,13,13,12.00
2017,10,31,13,14,12.10
2017,10,31,13,15,12.10
2017,10,31,13,16,12.10
2017,10,31,13,17,12.10
2017,10,31,13,18,12.10
2017,10,31,13,19,12.10
2017,10,31,13,20,12.10
2017,10,31,13,21,12.10
2017,10,31,13,22,12.00
2017,10,31,13,23,12.00
2017,10,31,13,24,12.00
2017,10,31,13,25,12.00
2017,10,31,13,26,11.90
2017,10,31,13,27,11.90
2017,10,31,13,28,11.90
2017,10,31,13,29,11.80
2017,10,31,13,30,11.80
2017,10,31,13,31,11.80
2017,10,31,13,32,11.70
2017,10,31,13,33,11.70
2017,10,31,13,34,11.70
2017,10,31,13,35,11.60
2017,10,31,13,36,11.60
2017,10,31,13,37,11.50
2017,10,31,13,38,11.40
2017,10,31,13,39,11.30
2017,10,31,13,40,11.20
2017,10,31,13,41,11.10
2017,10,31,13,42,11.10
2017,10,31,13,43,11.10
2017,10,31,13,44,11.10
2017,10,31,13,45,11.10
2017,10,31,13,46,11.10
2017,10,31,13,47,11.10
2017,10,31,13,48,11.20
2017,10,31,13,49,11.20
2017,10,31,13,50,11.30
2017,10,31,13,51,11.30
2017,10,31,13,52,11.30
2017,10,31,13,53,11.40
2017,10,31,13,54,11.40
2017,10,31,13,55,11.40
2017,10,31,13,56,11.40
2017,10,31,13,57,11.40
2017,10,31,13,58,11.40
2017,10,31,13,59,11.30
2017,10,31,14,00,11.30
2017,10,31,14,01,11.20
2017,10,31,14,02,11.20
2017,10,31,14,03,11.20
2017,10,31,14,04,11.10
2017,10,31,14,05,11.00
2017,10,31,14,06,11.00
2017,10,31,14,07,10.90
2017,10,31,14,08,10.90
2017,10,31,14,09,10.90
2017,10,31,14,10,10.90
2017,10,31,14,11,10.90
2017,10,31,14,12,11.00
2017,10,31,14,13,11.10
2017,10,31,14,14,11.10
2017,10,31,14,15,11.20
2017,10,31,14,16,11.20
2017,10,31,14,17,11.30
2017,10,31,14,18,11.30
2017,10,31,14,19,11.30
2017,10,31,14,20,11.30
2017,10,31,14,21,11.30
2017,10,31,14,22,11.20
2017,10,31,14,23,11.20
2017,10,31,14,24,11.10
2017,10,31,14,25,11.10
2017,10,31,14,26,11.00
2017,10,31,14,27,11.00
2017,10,31,14,28,11.00
2017,10,31,14,29,10.90
2017,10,31,14,30,10.90
2017,10,31,14,31,11.00
2017,10,31,14,32,11.00
2017,10,31,14,33,11.00
2017,10,31,14,34,11.00
2017,10,31,14,35,11.00
2017,10,31,14,36,11.00
2017,10,31,14,37,11.00
2017,10,31,14,38,11.10
2017,10,31,14,39,11.10
2017,10,31,14,40,11.10
2017,10,31,14,41,11.20
2017,10,31,14,42,11.20
2017,10,31,14,43,11.20
2017,10,31,14,44,11.30
2017,10,31,14,45,11.30
2017,10,31,14,46,11.30
2017,10,31,14,47,11.30
2017,10,31,14,48,11.40
2017,10,31,14,49,11.40
2017,10,31,14,50,11.40
2017,10,31,14,51,11.50
2017,10,31,14,52,11.50
2017,10,31,14,53,11.60
2017,10,31,14,54,11.60
2017,10,31,14,55,11.60
2017,10,31,14,56,11.70
2017,10,31,14,57,11.70
2017,10,31,14,58,11.70
2017,10,31,14,59,11.70
2017,10,31,15,00,11.70
2017,10,31,15,01,11.70
2017,10,31,15,02,11.80
2017,10,31,15,03,11.80
2017,10,31,15,04,11.80
2017,10,31,15,05,11.80
2017,10,31,15,06,11.90
2017,10,31,15,07,11.90
2017,10,31,15,08,11.90
2017,10,31,15,09,11.90
2017,10,31,15,10,11.90
2017,10,31,15,11,11.90
2017,10,31,15,12,11.80
2017,10,31,15,13,11.80
2017,10,31,15,14,11.80
2017,10,31,15,15,11.70
2017,10,31,15,16,11.70
2017,10,31,15,17,11.70
2017,10,31,15,18,11.70
2017,10,31,15,19,11.70
2017,10,31,15,20,11.60
2017,10,31,15,21,11.60
2017,10,31,15,22,11.50
2017,10,31,15,23,11.50
2017,10,31,15,24,11.40
2017,10,31,15,25,11.30
2017,10,31,15,26,11.30
2017,10,31,15,27,11.30
2017,10,31,15,28,11.30
2017,10,31,15,29,11.30
2017,10,31,15,30,11.20
2017,10,31,15,31,11.20
2017,10,31,15,32,11.30
2017,10,31,15,33,11.30
2017,10,31,15,34,11.30
2017,10,31,15,35,11.30
2017,10,31,15,36,11.30
2017,10,31,15,37,11.30
2017,10,31,15,38,11.30
2017,10,31,15,39,11.40
2017,10,31,15,40,11.40
2017,10,31,15,41,11.40
2017,10,31,15,42,11.40
2017,10,31,15,43,11.50
2017,10,31,15,44,11.50
2017,10,31,15,45,11.60
2017,10,31,15,46,11.60
2017,10,31,15,47,11.60
2017,10,31,15,48,11.70
2017,10,31,15,49,11.70
2017,10,31,15,50,11.70
2017,10,31,15,51,11.80
2017,10,31,15,52,11.80
2017,10,31,15,53,11.70
2017,10,31,15,54,11.70
2017,10,31,15,55,11.70
2017,10,31,15,56,11.60
2017,10,31,15,57,11.40
2017,10,31,15,58,11.30
2017,10,31,15,59,11.20
2017,10,31,16,00,11.10
2017,10,31,16,01,11.10
2017,10,31,16,02,11.00
2017,10,31,16,03,10.90
2017,10,31,16,04,10.90
2017,10,31,16,05,10.80
2017,10,31,16,06,10.80
2017,10,31,16,07,10.80
2017,10,31,16,08,10.70
2017,10,31,16,09,10.70
2017,10,31,16,10,10.70
2017,10,31,16,11,10.70
2017,10,31,16,12,10.70
2017,10,31,16,13,10.70
2017,10,31,16,14,10.70
2017,10,31,16,15,10.70
2017,10,31,16,16,10.70
2017,10,31,16,17,10.70
2017,10,31,16,18,10.70
2017,10,31,16,19,10.70
2017,10,31,16,20,10.60
2017,10,31,16,21,10.60
2017,10,31,16,22,10.60
2017,10,31,16,23,10.60
2017,10,31,16,24,10.60
2017,10,31,16,25,10.60
2017,10,31,16,26,10.60
2017,10,31,16,27,10.60
2017,10,31,16,28,10.60
2017,10,31,16,29,10.60
2017,10,31,16,30,10.60
2017,10,31,16,31,10.50
2017,10,31,16,32,10.50
2017,10,31,16,33,10.50
2017,10,31,16,34,10.50
2017,10,31,16,35,10.50
2017,10,31,16,36,10.50
2017,10,31,16,37,10.50
2017,10,31,16,38,10.50
2017,10,31,16,39,10.50
2017,10,31,16,40,10.50
2017,10,31,16,41,10.50
2017,10,31,16,42,10.50
2017,10,31,16,43,10.60
2017,10,31,16,44,10.60
2017,10,31,16,45,10.60
2017,10,31,16,46,10.60
2017,10,31,16,47,10.60
2017,10,31,16,48,10.70
2017,10,31,16,49,10.70
2017,10,31,16,50,10.70
2017,10,31,16,51,10.70
2017,10,31,16,52,10.80
2017,10,31,16,53,10.90
2017,10,31,16,54,10.90
2017,10,31,16,55,11.00
2017,10,31,16,56,11.00
2017,10,31,16,57,11.10
2017,10,31,16,58,11.10
2017,10,31,16,59,11.20
2017,10,31,17,00,11.20
2017,10,31,17,01,11.30
2017,10,31,17,02,11.30
2017,10,31,17,03,11.40
2017,10,31,17,04,11.40
2017,10,31,17,05,11.40
2017,10,31,17,06,11.50
2017,10,31,17,07,11.50
2017,10,31,17,08,11.50
2017,10,31,17,09,11.60
2017,10,31,17,10,11.60
2017,10,31,17,11,11.70
2017,10,31,17,12,11.70
2017,10,31,17,13,11.80
2017,10,31,17,14,11.80
2017,10,31,17,15,11.90
2017,10,31,17,16,11.90
2017,10,31,17,17,12.00
2017,10,31,17,18,12.00
2017,10,31,17,19,12.10
2017,10,31,17,20,12.10
2017,10,31,17,21,12.10
2017,10,31,17,22,12.20
2017,10,31,17,23,12.20
2017,10,31,17,24,12.20
2017,10,31,17,25,12.20
2017,10,31,17,26,12.20
2017,10,31,17,27,12.30
2017,10,31,17,28,12.30
2017,10,31,17,29,12.20
2017,10,31,17,30,12.20
2017,10,31,17,31,12.20
2017,10,31,17,32,12.20
2017,10,31,17,33,12.20
2017,10,31,17,34,12.20
2017,10,31,17,35,12.20
2017,10,31,17,36,12.20
2017,10,31,17,37,12.20
2017,10,31,17,38,12.20
2017,10,31,17,39,12.20
2017,10,31,17,40,12.10
2017,10,31,17,41,12.10
2017,10,31,17,42,12.10
2017,10,31,17,43,12.10
2017,10,31,17,44,12.10
2017,10,31,17,45,12.10
2017,10,31,17,46,12.10
2017,10,31,17,47,12.10
2017,10,31,17,48,12.10
2017,10,31,17,49,12.10